Погода в Арлагуле

Россия / Курганская область     55°30′29″N   66°20′39″E
темп.,
°C
ветер,
м/с
пор.,
м/с
влажн.,
%
обл.,
%
осадки,
мм/ч
давл.,
гПа
погр.,
м
20 сентября, пн
пн2023:00+4зсз71370100 0.1 1011969
02:00+3сз41093100 0.1 1013862
05:00+3зсз61183100 0.2 1015854
08:00+3зсз6117799 0.0 1017754
11:00+5сз7969100 0.1 10191195
14:00+6ссз6866100 0.3 10211264
17:00+5ссз698198 0.4 1023785
20:00+4ссз488897 0.2 1024789
21 сентября, вт
вт2123:00+4ссз478498 0.3 1025727
02:00+3сз368798 0.1 1026532
05:00+3сз4685100 0.1 1027582
08:00+3ссз458599 0.0 1027497
11:00+4ссз346998 0.1 1027957
14:00+7сз355354 0.0 10261201
17:00+8сз464691 0.0 10241357
20:00+4зсз116273 0.0 102410
22 сентября, ср
ср2223:00+3зюз336669 0.0 102429
02:00+2зюз366975 0.0 1023105
05:00+3зюз3863100 0.0 1022159
08:00+4зсз465788 0.0 1022235
11:00+9ссз45515 0.0 1022868
14:00+11с454661 0.0 10221463
17:00+9ссв4554100 0.0 1023879
20:00+7ссв3661100 0.0 1024416
23 сентября, чт
чт2323:00+6с2467100 0.0 1025168
02:00+4с2374100 0.0 102686
05:00+3с338467 0.0 102742
08:00+3с358156 0.0 1029200
11:00+5ссв4481100 0.0 1030597
14:00+7ссв3458100 0.1 10311327
17:00+6св236371 0.1 1032596
20:00+4в116638 0.0 103312
24 сентября, пт
пт2423:00+2ююв11745 0.0 103410
02:00+1ююв117842 0.0 103410
05:00+1юз1180100 0.0 103510
08:00+3юз2371100 0.0 103598
11:00+7юз2354100 0.0 1035689
14:00+10юз2343100 0.0 10331138
17:00+11ююз1147100 0.0 103212
20:00+7юв2259100 0.0 103210